La Vinya d'en Daniel (La Selva)





Hora UTC 16:15
Temperatura 20.1 ºC
Humitat 78.0 %
Pressió 1015.6 hPa
Pluja 1.0 mm
Velocitat vent 0.0 km/h
Direcció vent NE

Dades diàries 2023-06-01



Hora UTC (hivern +1h; estiu +2h)
Temperatura (ºC) Humitat (%) Pressió (hPa) Velocitat vent (km/h) Precipitació (mm)
Hora UTC Aire Humitat Pressió Vel. Dir. Vel. Max Dir. Intent. màx 5 min.
00:05 15.8 84.0 1017.1 0.0 N 0.0 0.0
00:10 15.9 85.0 1017.1 0.0 N 0.0 0.0
00:15 15.8 84.0 1017.1 0.0 N 0.0 0.0
00:20 15.8 84.0 1017.1 0.0 N 0.0 0.0
00:25 15.8 85.0 1017.0 0.0 N 0.0 0.0
00:30 15.7 85.0 1017.1 0.0 N 0.0 0.0
00:35 15.6 85.0 1017.0 0.0 N 0.0 0.0
00:40 15.6 85.0 1017.0 0.0 N 0.0 0.0
00:45 15.5 85.0 1017.1 0.0 N 0.0 0.0
00:50 15.4 85.0 1017.0 0.0 N 0.0 0.0
00:55 15.4 85.0 1017.1 0.0 N 0.0 0.0
01:00 15.4 85.0 1017.0 0.0 N 0.0 0.0
01:05 15.4 85.0 1017.0 0.0 N 0.0 0.0
01:10 15.4 85.0 1017.0 0.0 N 0.0 0.0
01:15 15.3 86.0 1016.9 0.0 N 0.0 0.0
01:20 15.3 86.0 1017.0 0.0 N 0.0 0.0
01:25 15.2 86.0 1016.9 0.0 N 0.0 0.2
01:30 15.2 86.0 1016.9 0.0 N 0.0 0.0
01:35 15.2 86.0 1016.9 0.0 NNW 0.0 0.0
01:40 15.1 86.0 1016.9 0.0 NNW 0.0 0.0
01:45 15.1 86.0 1017.0 0.0 NNW 0.0 0.0
01:50 15.1 86.0 1017.0 0.0 NNW 0.0 0.0
01:55 15.1 86.0 1017.1 0.0 NNW 0.0 0.0
02:00 15.0 86.0 1017.1 0.0 NW 0.0 0.0
02:05 15.0 87.0 1017.1 0.0 NW 0.0 0.2
02:10 15.0 87.0 1017.0 0.0 NW 0.0 0.0
02:15 15.1 87.0 1017.0 0.0 WNW 0.0 0.0
02:20 15.1 87.0 1017.0 0.0 WSW 0.0 0.0
02:25 15.0 87.0 1016.8 0.0 WSW 0.0 0.0
02:30 14.9 87.0 1016.9 0.0 W 0.0 0.0
02:35 14.9 87.0 1016.8 0.0 WSW 0.0 0.0
02:40 14.8 87.0 1016.8 0.0 WSW 0.0 0.0
02:45 14.8 87.0 1016.9 0.0 W 0.0 0.0
02:50 14.8 87.0 1016.8 0.0 W 0.0 0.0
02:55 14.8 87.0 1016.8 0.0 WNW 0.0 0.0
03:00 14.8 87.0 1016.7 0.0 WNW 1.6 0.0
03:05 14.7 87.0 1016.7 0.0 WNW 1.6 0.0
03:10 14.8 88.0 1016.7 0.0 NNW 0.0 0.0
03:15 14.8 88.0 1016.7 0.0 WNW 0.0 0.0
03:20 14.8 88.0 1016.7 0.0 WNW 0.0 0.0
03:25 14.8 88.0 1016.6 0.0 NW 0.0 0.0
03:30 14.8 88.0 1016.6 0.0 NW 0.0 0.0
03:35 14.8 88.0 1016.5 0.0 W 0.0 0.0
03:40 14.8 88.0 1016.5 0.0 W 0.0 0.0
03:45 14.7 88.0 1016.5 0.0 W 0.0 0.0
03:50 14.8 88.0 1016.5 0.0 W 0.0 0.0
03:55 14.7 88.0 1016.5 0.0 W 0.0 0.0
04:00 14.7 88.0 1016.5 0.0 WNW 0.0 0.0
04:05 14.7 88.0 1016.4 0.0 NW 0.0 0.0
04:10 14.7 88.0 1016.4 0.0 WNW 0.0 0.0
04:15 14.7 88.0 1016.4 0.0 W 0.0 0.0
04:20 14.7 88.0 1016.5 0.0 W 0.0 0.0
04:25 14.7 88.0 1016.4 0.0 W 0.0 0.0
04:30 14.7 88.0 1016.4 0.0 WNW 0.0 0.0
04:35 14.7 88.0 1016.5 0.0 NW 0.0 0.0
04:40 14.7 88.0 1016.4 0.0 WNW 0.0 0.0
04:45 14.7 88.0 1016.5 0.0 N 0.0 0.0
04:50 14.7 88.0 1016.5 0.0 N 0.0 0.0
04:55 14.7 88.0 1016.5 0.0 N 0.0 0.0
05:00 14.7 88.0 1016.4 0.0 N 0.0 0.0
05:05 14.7 88.0 1016.3 0.0 N 0.0 0.0
05:10 14.7 88.0 1016.4 0.0 N 0.0 0.0
05:15 14.7 88.0 1016.4 0.0 N 0.0 0.0
05:20 14.7 88.0 1016.5 0.0 N 0.0 0.0
05:25 14.7 88.0 1016.5 0.0 N 0.0 0.0
05:30 14.7 88.0 1016.5 0.0 N 0.0 0.0
05:35 14.7 88.0 1016.5 0.0 N 0.0 0.0
05:40 14.8 88.0 1016.7 0.0 N 0.0 0.0
05:45 14.8 88.0 1016.7 0.0 N 0.0 0.0
05:50 14.8 88.0 1016.7 0.0 N 4.8 0.0
05:55 14.8 88.0 1016.7 0.0 N 4.8 0.0
06:00 14.9 88.0 1016.7 0.0 N 0.0 0.0
06:05 15.1 88.0 1016.7 0.0 N 0.0 0.0
06:10 15.2 88.0 1016.7 0.0 N 0.0 0.0
06:15 15.4 88.0 1016.9 0.0 NW 0.0 0.0
06:20 15.6 88.0 1016.8 0.0 NW 0.0 0.0
06:25 15.7 88.0 1016.8 0.0 WNW 0.0 0.0
06:30 15.9 88.0 1016.9 0.0 WNW 0.0 0.0
06:35 16.1 87.0 1016.9 0.0 WSW 0.0 0.0
06:40 16.2 87.0 1016.8 0.0 WSW 3.2 0.0
06:45 16.4 87.0 1017.0 0.0 WSW 3.2 0.0
06:50 16.5 86.0 1016.9 0.0 WSW 0.0 0.0
06:55 16.7 86.0 1016.8 0.0 WSW 0.0 0.0
07:00 16.7 86.0 1016.9 0.0 W 0.0 0.0
07:05 17.1 85.0 1017.0 0.0 W 0.0 0.0
07:10 17.4 85.0 1017.0 0.0 SSW 0.0 0.0
07:15 17.4 83.0 1016.8 0.0 SW 0.0 0.0
07:20 17.6 82.0 1016.8 0.0 SW 0.0 0.0
07:25 17.7 82.0 1016.9 0.0 WSW 0.0 0.0
07:30 17.9 82.0 1017.0 0.0 WSW 0.0 0.0
07:35 18.2 82.0 1017.0 0.0 NNW 0.0 0.0
07:40 18.6 81.0 1017.0 0.0 N 0.0 0.0
07:45 18.8 79.0 1016.9 0.0 N 0.0 0.0
07:50 19.0 79.0 1017.0 0.0 SW 0.0 0.0
07:55 19.2 79.0 1017.0 0.0 SW 0.0 0.0
08:00 19.3 79.0 1017.1 0.0 S 0.0 0.0
08:05 19.7 79.0 1017.0 0.0 SW 0.0 0.0
08:10 19.6 76.0 1017.1 0.0 SW 0.0 0.0
08:15 19.5 76.0 1017.1 0.0 SW 0.0 0.0
08:20 19.3 76.0 1017.2 0.0 SSW 0.0 0.0
08:25 19.3 76.0 1017.2 0.0 WSW 0.0 0.0
08:30 19.4 76.0 1017.2 0.0 SW 0.0 0.0
08:35 19.5 76.0 1017.2 0.0 SSW 0.0 0.0
08:40 19.5 75.0 1017.3 0.0 SW 0.0 0.0
08:45 19.6 75.0 1017.3 0.0 SW 0.0 0.0
08:50 19.6 75.0 1017.2 0.0 S 0.0 0.0
08:55 20.0 76.0 1017.2 0.0 S 0.0 0.0
09:00 20.4 73.0 1017.2 0.0 SSE 0.0 0.0
09:05 20.7 72.0 1017.1 0.0 SSW 4.8 0.0
09:10 21.0 71.0 1017.1 0.0 NNE 4.8 0.0
09:15 21.4 70.0 1016.9 0.0 SE 3.2 0.0
09:20 21.8 69.0 1017.0 0.0 N 1.6 0.0
09:25 21.9 67.0 1016.9 0.0 E 0.0 0.0
09:30 22.2 66.0 1016.9 0.0 E 0.0 0.0
09:35 22.3 64.0 1016.9 0.0 ESE 0.0 0.0
09:40 22.2 63.0 1016.9 0.0 NE 0.0 0.0
09:45 22.2 62.0 1016.9 0.0 NW 0.0 0.0
09:50 22.3 62.0 1016.7 0.0 N 0.0 0.0
09:55 22.4 64.0 1016.7 0.0 S 0.0 0.0
10:00 22.7 63.0 1016.7 0.0 WNW 1.6 0.0
10:05 22.7 64.0 1016.7 0.0 SE 1.6 0.0
10:10 22.9 63.0 1016.7 0.0 ENE 0.0 0.0
10:15 23.1 63.0 1016.7 0.0 NE 0.0 0.0
10:20 22.9 63.0 1016.6 0.0 ENE 0.0 0.0
10:25 22.8 65.0 1016.6 0.0 ESE 0.0 0.0
10:30 22.9 63.0 1016.6 0.0 E 0.0 0.0
10:35 23.0 63.0 1016.6 0.0 NNE 0.0 0.0
10:40 22.9 65.0 1016.6 0.0 NE 0.0 0.0
10:45 23.0 62.0 1016.6 0.0 NE 0.0 0.0
10:50 22.9 63.0 1016.5 0.0 SE 0.0 0.0
10:55 22.6 62.0 1016.5 0.0 S 0.0 0.0
11:00 22.4 63.0 1016.4 0.0 SW 0.0 0.0
11:05 22.6 64.0 1016.4 0.0 SSW 0.0 0.0
11:10 22.5 64.0 1016.3 0.0 SE 0.0 0.0
11:15 22.8 64.0 1016.3 0.0 WSW 1.6 0.0
11:20 23.0 61.0 1016.2 0.0 NE 1.6 0.0
11:25 23.2 62.0 1016.2 0.0 NW 1.6 0.0
11:30 23.4 61.0 1015.9 0.0 NNE 0.0 0.0
11:35 23.6 62.0 1015.9 0.0 N 0.0 0.0
11:40 23.9 59.0 1015.9 0.0 SE 1.6 0.0
11:45 23.7 59.0 1016.0 0.0 SSE 1.6 0.0
11:50 23.4 60.0 1015.9 0.0 SSW 0.0 0.0
11:55 23.1 61.0 1016.0 0.0 SSE 4.8 0.0
12:00 22.7 63.0 1016.3 0.0 SE 19.3 0.0
12:05 22.2 67.0 1016.2 14.5 SE 19.3 0.0
12:10 21.7 70.0 1016.2 6.4 SE 24.1 0.0
12:15 21.3 71.0 1016.2 0.0 S 24.1 0.0
12:20 20.8 75.0 1016.2 16.1 SE 16.1 0.2
12:25 20.2 77.0 1016.5 0.0 SSE 17.7 0.4
12:30 19.8 78.0 1016.6 0.0 SSE 16.1 0.0
12:35 19.8 79.0 1016.4 3.2 S 9.7 0.0
12:40 19.8 79.0 1016.5 0.0 S 9.7 0.0
12:45 19.8 79.0 1016.5 0.0 S 4.8 0.0
12:50 19.8 79.0 1016.4 0.0 S 3.2 0.0
12:55 19.7 78.0 1016.4 0.0 NE 4.8 0.0
13:00 19.7 79.0 1016.5 0.0 NNE 4.8 0.0
13:05 19.6 81.0 1016.7 0.0 NNW 0.0 0.0
13:10 18.8 80.0 1016.7 0.0 NNW 0.0 0.0
13:15 18.8 82.0 1016.7 0.0 NNE 0.0 0.0
13:20 18.4 82.0 1016.9 0.0 NNE 0.0 0.0
13:25 18.1 82.0 1016.9 0.0 NNW 0.0 0.0
13:30 17.8 82.0 1017.0 0.0 NNW 0.0 0.0
13:35 17.8 82.0 1017.1 0.0 WNW 0.0 0.0
13:40 17.7 83.0 1017.0 0.0 WNW 0.0 0.0
13:45 17.6 83.0 1017.2 0.0 E 0.0 0.0
13:50 17.2 82.0 1017.1 0.0 WNW 0.0 0.0
13:55 17.0 82.0 1017.0 0.0 ENE 0.0 0.0
14:00 16.7 82.0 1017.0 0.0 WNW 0.0 0.0
14:05 16.6 82.0 1016.7 0.0 W 0.0 0.0
14:10 16.6 82.0 1016.9 0.0 SW 1.6 0.0
14:15 16.6 83.0 1016.9 0.0 WNW 1.6 0.0
14:20 16.6 83.0 1016.9 0.0 W 0.0 0.0
14:25 16.5 83.0 1016.8 0.0 WNW 0.0 0.0
14:30 16.6 83.0 1016.9 0.0 WNW 0.0 0.0
14:35 16.6 83.0 1017.0 0.0 W 0.0 0.0
14:40 16.7 84.0 1017.1 0.0 W 0.0 0.0
14:45 16.7 84.0 1017.0 0.0 W 0.0 0.0
14:50 16.7 84.0 1017.1 0.0 W 0.0 0.0
14:55 16.8 84.0 1017.0 0.0 SW 0.0 0.0
15:00 16.8 84.0 1016.9 0.0 W 0.0 0.0
15:05 16.9 84.0 1016.8 0.0 WNW 0.0 0.0
15:10 17.1 84.0 1016.8 0.0 SW 0.0 0.0
15:15 17.2 83.0 1016.6 0.0 WNW 0.0 0.0
15:20 17.6 84.0 1016.5 0.0 SW 1.6 0.0
15:25 17.9 83.0 1016.4 0.0 SW 1.6 0.0
15:30 18.3 83.0 1016.4 0.0 W 0.0 0.0
15:35 18.6 83.0 1016.3 0.0 SSW 0.0 0.0
15:40 18.8 82.0 1016.1 0.0 SW 0.0 0.0
15:45 19.1 81.0 1016.1 0.0 NNW 0.0 0.0
15:50 19.5 80.0 1016.1 0.0 NE 0.0 0.0
15:55 19.7 79.0 1016.0 0.0 NNW 0.0 0.0
16:00 19.9 79.0 1015.8 0.0 N 0.0 0.0
16:05 20.1 78.0 1015.8 0.0 NNE 0.0 0.0
16:10 20.2 78.0 1015.7 0.0 N 0.0 0.0
16:15 20.1 78.0 1015.6 0.0 NE 0.0 0.0
Màxima 23.9 88.0 1017.3 16.1 SE 24.1 0.4
Mínima 14.7 59.0 1015.6
Total 1.0